Weather History for Terre Haute, IN

Change the Weather History Date:

Monday, November 18, 2013

  Actual Average Record
Temperature  
Mean Temperature 49 °F 42 °F  
Max Temperature 62 °F 51 °F 77 °F (1958)
Min Temperature 32 °F 33 °F 7 °F (1959)
Degree Days  
Heating Degree Days 16 23  
Month to date heating degree days 322 344  
Since 1 July heating degree days 731 771  
Cooling Degree Days 0 0  
Month to date cooling degree days 0 0  
Year to date cooling degree days 1056 993  
Moisture  
Dew Point 32 °F    
Average Humidity 50    
Maximum Humidity 79    
Minimum Humidity 39    
Precipitation  
Precipitation 0.00 in 0.13 in 1.59 in (2003)
Month to date precipitation 2.24 2.30  
Year to date precipitation 40.80 40.57  
Sea Level Pressure  
Sea Level Pressure 30.09 in    
Wind  
Wind Speed 11 mph (WNW)    
Max Wind Speed 26 mph    
Max Gust Speed 32 mph    
Visibility 10 miles    
Events      
T = Trace of Precipitation, MM = Missing Value Source: NWS Daily Summary

Daily Weather History Graph

Daily Weather History Graph

Search for Another Location

Airport:

Trip Planner

Search our weather history database for the weather conditions in past years. The results will help you decide how hot, cold, wet, or windy it might be!

Date:

Astronomy

Nov. 18, 2013 Rise Set
Actual Time 7:36 AM EST 5:31 PM EST
Civil Twilight 7:07 AM EST 6:00 PM EST
Nautical Twilight 6:35 AM EST 6:33 PM EST
Astronomical Twilight 6:03 AM EST 7:05 PM EST
Moon 6:33 PM EST (11/18) 8:25 AM EST (11/18)
Length of Visible Light 10h 52m
Length of Day
9h 55m
Full, 99% of the Moon is Illuminated
Nov 18
Full
Nov 25
Last Quarter
Dec 2
New
Dec 9
First Quarter
Dec 17
Full

Hourly Weather History & Observations

Time (EST) Temp. Windchill Dew Point Humidity Pressure Visibility Wind Dir Wind Speed Gust Speed Precip Events Conditions
12:53 AM 62.1 °F - 37.9 °F 41% 29.90 in 10.0 mi WNW 11.5 mph 20.7 mph N/A   Clear
1:53 AM 62.1 °F - 37.0 °F 39% 29.91 in 10.0 mi WNW 9.2 mph - N/A   Clear
2:53 AM 59.0 °F - 37.0 °F 44% 29.94 in 10.0 mi West 6.9 mph - N/A   Clear
3:53 AM 62.1 °F - 37.0 °F 39% 29.96 in 10.0 mi WSW 8.1 mph - N/A   Clear
4:53 AM 59.0 °F - 37.0 °F 44% 29.97 in 10.0 mi West 8.1 mph - N/A   Clear
5:53 AM 57.0 °F - 36.0 °F 45% 29.97 in 10.0 mi West 9.2 mph - N/A   Clear
6:53 AM 55.9 °F - 35.1 °F 45% 29.99 in 10.0 mi West 9.2 mph - N/A   Clear
7:53 AM 55.0 °F - 34.0 °F 45% 30.01 in 10.0 mi West 11.5 mph - N/A   Clear
8:53 AM - - - N/A% 30.04 in 10.0 mi West 12.7 mph - N/A   Clear
9:53 AM - - - N/A% 30.06 in 10.0 mi WNW 15.0 mph 23.0 mph N/A   Clear
10:53 AM 48.0 °F - 35.1 °F 61% 30.08 in 10.0 mi West 17.3 mph 27.6 mph N/A   Clear
11:53 AM 50.0 °F - 34.0 °F 54% 30.09 in 10.0 mi WNW 19.6 mph 28.8 mph N/A   Clear
12:53 PM 50.0 °F - 33.1 °F 52% 30.10 in 10.0 mi NW 17.3 mph 25.3 mph N/A   Clear
1:53 PM 51.1 °F - 32.0 °F 48% 30.10 in 10.0 mi NW 13.8 mph 28.8 mph N/A   Clear
2:53 PM 51.1 °F - 30.0 °F 44% 30.12 in 10.0 mi WNW 19.6 mph 25.3 mph N/A   Clear
3:53 PM 50.0 °F - 28.0 °F 43% 30.13 in 10.0 mi NW 13.8 mph 26.5 mph N/A   Clear
4:53 PM 48.9 °F - 27.0 °F 43% 30.16 in 10.0 mi WNW 17.3 mph 24.2 mph N/A   Clear
5:53 PM 46.0 °F 40.6 °F 27.0 °F 47% 30.18 in 10.0 mi WNW 11.5 mph - N/A   Clear
6:53 PM 45.0 °F 39.3 °F 28.0 °F 52% 30.19 in 10.0 mi WNW 11.5 mph - N/A   Clear
7:53 PM 43.0 °F 38.2 °F 27.0 °F 53% 30.20 in 10.0 mi WNW 8.1 mph - N/A   Clear
8:53 PM 42.1 °F 38.4 °F 27.0 °F 55% 30.21 in 10.0 mi NW 5.8 mph - N/A   Clear
9:53 PM 39.0 °F 34.8 °F 27.0 °F 62% 30.23 in 10.0 mi NW 5.8 mph - N/A   Clear
10:53 PM 36.0 °F 33.3 °F 27.0 °F 70% 30.26 in 10.0 mi WNW 3.5 mph - N/A   Clear
11:53 PM 34.0 °F - 28.0 °F 79% 30.27 in 10.0 mi Calm Calm - N/A   Clear